| time (UTC) | temp F | wind direction | speed MPH | gust MPH | rain 1hr in | rain 24hr in | rain mn in | humidity % | barometer mb |
| 20260902065033 | 86 | 175 | 4.0 | 8.0 | 0.00 | 0.00 | 0.00 | 59 | 1015.7 |
| 20260902064530 | 85 | 172 | 3.0 | 7.0 | 0.00 | 0.00 | 0.00 | 60 | 1015.7 |
| 20260902064049 | 86 | 177 | 2.0 | 6.0 | 0.00 | 0.00 | 0.00 | 60 | 1015.8 |
| 20260902063526 | 86 | 172 | 4.0 | 6.0 | 0.00 | 0.00 | 0.00 | 59 | 1015.6 |
| 20260902063025 | 86 | 190 | 3.0 | 8.0 | 0.00 | 0.00 | 0.00 | 59 | 1015.6 |
| 20260902062523 | 86 | 194 | 3.0 | 8.0 | 0.00 | 0.00 | 0.00 | 59 | 1015.5 |
| 20260902062021 | 86 | 198 | 3.0 | 6.0 | 0.00 | 0.00 | 0.00 | 59 | 1015.4 |
| 20260902061519 | 86 | 208 | 2.0 | 6.0 | 0.00 | 0.00 | 0.00 | 59 | 1015.4 |
| 20260902061017 | 87 | 177 | 2.0 | 4.0 | 0.00 | 0.00 | 0.00 | 58 | 1015.4 |
| 20260902060535 | 87 | 186 | 2.0 | 4.0 | 0.00 | 0.00 | 0.00 | 58 | 1015.3 |
| 20260902060032 | 87 | 185 | 3.0 | 6.0 | 0.00 | 0.00 | 0.00 | 58 | 1015.2 |
| 20260902055530 | 87 | 184 | 3.0 | 7.0 | 0.00 | 0.00 | 0.00 | 58 | 1015.2 |
| 20260902055029 | 87 | 184 | 2.0 | 5.0 | 0.00 | 0.00 | 0.00 | 57 | 1015.0 |
| 20260902054526 | 87 | 179 | 3.0 | 8.0 | 0.00 | 0.00 | 0.00 | 57 | 1015.1 |
| 20260902054024 | 87 | 173 | 3.0 | 8.0 | 0.00 | 0.00 | 0.00 | 56 | 1015.1 |
| 20260902053522 | 87 | 187 | 4.0 | 9.0 | 0.00 | 0.00 | 0.00 | 56 | 1015.0 |
| 20260902053020 | 88 | 169 | 4.0 | 9.0 | 0.00 | 0.00 | 0.00 | 56 | 1015.1 |
| 20260902052518 | 88 | 187 | 3.0 | 7.0 | 0.00 | 0.00 | 0.00 | 55 | 1015.0 |
| 20260902052016 | 88 | 187 | 3.0 | 8.0 | 0.00 | 0.00 | 0.00 | 55 | 1014.9 |
| 20260902051534 | 89 | 173 | 4.0 | 8.0 | 0.00 | 0.00 | 0.00 | 54 | 1014.9 |
| 20260902051153 | 89 | 163 | 4.0 | 11.0 | 0.00 | 0.00 | 0.00 | 53 | 1014.8 |
| 20260902050530 | 89 | 176 | 3.0 | 8.0 | 0.00 | 0.00 | 0.00 | 53 | 1014.9 |
| 20260902050028 | 89 | 159 | 3.0 | 9.0 | 0.00 | 0.00 | 0.00 | 53 | 1015.1 |
| 20260902045526 | 89 | 123 | 2.0 | 7.0 | 0.00 | 0.00 | 0.00 | 53 | 1015.2 |
| 20260902045025 | 89 | 129 | 2.0 | 5.0 | 0.00 | 0.00 | 0.00 | 53 | 1015.1 |
| 20260902044523 | 89 | 113 | 1.0 | 2.0 | 0.00 | 0.00 | 0.00 | 53 | 1014.8 |
| 20260902044021 | 89 | 126 | 1.0 | 3.0 | 0.00 | 0.00 | 0.00 | 53 | 1014.7 |
| 20260902043519 | 89 | 127 | 1.0 | 3.0 | 0.00 | 0.00 | 0.00 | 52 | 1014.7 |
| 20260902043037 | 89 | 147 | 1.0 | 3.0 | 0.00 | 0.00 | 0.00 | 52 | 1014.7 |
| 20260902042515 | 89 | 143 | 1.0 | 4.0 | 0.00 | 0.00 | 0.00 | 52 | 1014.6 |
| 20260902042114 | 89 | 130 | 1.0 | 3.0 | 0.00 | 0.00 | 0.00 | 52 | 1014.7 |
| 20260902041531 | 89 | 142 | 1.0 | 4.0 | 0.00 | 0.00 | 0.00 | 52 | 1014.7 |
| 20260902041030 | 90 | 121 | 1.0 | 4.0 | 0.00 | 0.00 | 0.00 | 52 | 1014.6 |
| 20260902040528 | 90 | 128 | 1.0 | 4.0 | 0.00 | 0.00 | 0.00 | 52 | 1014.5 |
| 20260902040026 | 90 | 130 | 0.0 | 4.0 | 0.00 | 0.00 | 0.00 | 51 | 1014.7 |
| 20260902035524 | 90 | 134 | 1.0 | 4.0 | 0.00 | 0.00 | 0.00 | 51 | 1014.6 |
| 20260902035022 | 90 | 126 | 2.0 | 5.0 | 0.00 | 0.00 | 0.00 | 51 | 1014.6 |
| 20260902034521 | 90 | 130 | 2.0 | 5.0 | 0.00 | 0.00 | 0.00 | 51 | 1014.7 |
| 20260902034018 | 90 | 140 | 2.0 | 7.0 | 0.00 | 0.00 | 0.00 | 51 | 1014.7 |
| 20260902033516 | 90 | 129 | 2.0 | 4.0 | 0.00 | 0.00 | 0.00 | 51 | 1014.7 |
| 20260902033114 | 90 | 121 | 2.0 | 4.0 | 0.00 | 0.00 | 0.00 | 51 | 1014.5 |
| 20260902032532 | 90 | 129 | 2.0 | 3.0 | 0.00 | 0.00 | 0.00 | 51 | 1014.6 |
| 20260902032030 | 91 | 125 | 2.0 | 4.0 | 0.00 | 0.00 | 0.00 | 50 | 1014.6 |
| 20260902031547 | 91 | 139 | 2.0 | 4.0 | 0.00 | 0.00 | 0.00 | 50 | 1014.5 |
| 20260902031025 | 91 | 137 | 1.0 | 4.0 | 0.00 | 0.00 | 0.00 | 50 | 1014.6 |
| 20260902030523 | 91 | 148 | 1.0 | 3.0 | 0.00 | 0.00 | 0.00 | 50 | 1014.5 |
| 20260902030021 | 91 | 155 | 1.0 | 4.0 | 0.00 | 0.00 | 0.00 | 50 | 1014.4 |
| 20260902025539 | 91 | 129 | 1.0 | 3.0 | 0.00 | 0.00 | 0.00 | 49 | 1014.4 |
| 20260902025057 | 91 | 148 | 1.0 | 3.0 | 0.00 | 0.00 | 0.00 | 49 | 1014.4 |
| 20260902024515 | 91 | 133 | 1.0 | 4.0 | 0.00 | 0.00 | 0.00 | 49 | 1014.4 |
| 20260902024033 | 92 | 139 | 1.0 | 3.0 | 0.00 | 0.00 | 0.00 | 48 | 1014.2 |
| 20260902023532 | 92 | 152 | 1.0 | 3.0 | 0.00 | 0.00 | 0.00 | 48 | 1014.1 |
| 20260902023032 | 92 | 133 | 2.0 | 5.0 | 0.00 | 0.00 | 0.00 | 48 | 1014.1 |
| 20260902022528 | 92 | 146 | 2.0 | 4.0 | 0.00 | 0.00 | 0.00 | 48 | 1014.0 |
| 20260902022025 | 92 | 160 | 2.0 | 4.0 | 0.00 | 0.00 | 0.00 | 47 | 1014.0 |
| 20260902021522 | 92 | 134 | 2.0 | 4.0 | 0.00 | 0.00 | 0.00 | 47 | 1013.9 |
| 20260902021101 | 92 | 158 | 2.0 | 4.0 | 0.00 | 0.00 | 0.00 | 47 | 1013.9 |
| 20260902020537 | 93 | 125 | 1.0 | 4.0 | 0.00 | 0.00 | 0.00 | 47 | 1013.7 |
| 20260902020035 | 93 | 136 | 3.0 | 5.0 | 0.00 | 0.00 | 0.00 | 46 | 1013.6 |
| 20260902015532 | 93 | 127 | 2.0 | 5.0 | 0.00 | 0.00 | 0.00 | 46 | 1013.5 |
| 20260902015049 | 93 | 113 | 3.0 | 7.0 | 0.00 | 0.00 | 0.00 | 46 | 1013.5 |
| 20260902014527 | 93 | 124 | 2.0 | 5.0 | 0.00 | 0.00 | 0.00 | 46 | 1013.5 |
| 20260902014024 | 93 | 123 | 2.0 | 3.0 | 0.00 | 0.00 | 0.00 | 45 | 1013.3 |
| 20260902013524 | 93 | 115 | 2.0 | 4.0 | 0.00 | 0.00 | 0.00 | 45 | 1013.4 |
| 20260902013141 | 93 | 123 | 2.0 | 4.0 | 0.00 | 0.00 | 0.00 | 45 | 1013.4 |
| 20260902012518 | 94 | 121 | 1.0 | 4.0 | 0.00 | 0.00 | 0.00 | 45 | 1013.3 |
| 20260902012016 | 94 | 118 | 3.0 | 5.0 | 0.00 | 0.00 | 0.00 | 44 | 1013.2 |
| 20260902011533 | 94 | 126 | 2.0 | 5.0 | 0.00 | 0.00 | 0.00 | 44 | 1013.2 |
| 20260902011031 | 94 | 120 | 2.0 | 5.0 | 0.00 | 0.00 | 0.00 | 44 | 1013.3 |
| 20260902010529 | 94 | 123 | 2.0 | 5.0 | 0.00 | 0.00 | 0.00 | 44 | 1013.2 |
| 20260902010027 | 95 | 129 | 2.0 | 6.0 | 0.00 | 0.00 | 0.00 | 43 | 1013.2 |
| 20260902005525 | 95 | 131 | 2.0 | 6.0 | 0.00 | 0.00 | 0.00 | 43 | 1013.2 |
| 20260902005023 | 95 | 132 | 3.0 | 7.0 | 0.00 | 0.00 | 0.00 | 43 | 1013.3 |
| 20260902004521 | 95 | 141 | 2.0 | 7.0 | 0.00 | 0.00 | 0.00 | 43 | 1013.2 |
| 20260902004038 | 95 | 126 | 4.0 | 7.0 | 0.00 | 0.00 | 0.00 | 42 | 1013.2 |
| 20260902003536 | 96 | 130 | 4.0 | 8.0 | 0.00 | 0.00 | 0.00 | 42 | 1013.3 |
| 20260902003034 | 96 | 129 | 4.0 | 10.0 | 0.00 | 0.00 | 0.00 | 42 | 1013.2 |
| 20260902002532 | 96 | 122 | 3.0 | 8.0 | 0.00 | 0.00 | 0.00 | 42 | 1013.4 |
| 20260902002030 | 97 | 120 | 4.0 | 10.0 | 0.00 | 0.00 | 0.00 | 42 | 1013.4 |
| 20260902001528 | 97 | 125 | 3.0 | 8.0 | 0.00 | 0.00 | 0.00 | 42 | 1013.5 |
| 20260902001026 | 97 | 107 | 4.0 | 10.0 | 0.00 | 0.00 | 0.00 | 41 | 1013.4 |
| 20260902000524 | 97 | 122 | 4.0 | 9.0 | 0.00 | 0.00 | 0.00 | 41 | 1013.5 |
| 20260902000022 | 98 | 113 | 3.0 | 8.0 | 0.00 | 0.00 | 0.00 | 39 | 1013.5 |
| 20260901235520 | 99 | 144 | 2.0 | 6.0 | 0.00 | 0.00 | 0.00 | 38 | 1013.5 |
| 20260901235039 | 99 | 154 | 2.0 | 5.0 | 0.00 | 0.00 | 0.00 | 38 | 1013.4 |
| 20260901234517 | 98 | 120 | 2.0 | 6.0 | 0.00 | 0.00 | 0.00 | 38 | 1013.5 |
| 20260901234035 | 99 | 140 | 2.0 | 8.0 | 0.00 | 0.00 | 0.00 | 38 | 1013.5 |
| 20260901233533 | 99 | 142 | 3.0 | 8.0 | 0.00 | 0.00 | 0.00 | 38 | 1013.5 |
| 20260901233031 | 99 | 104 | 3.0 | 10.0 | 0.00 | 0.00 | 0.00 | 38 | 1013.6 |
| 20260901232529 | 99 | 89 | 3.0 | 9.0 | 0.00 | 0.00 | 0.00 | 38 | 1013.6 |
| 20260901232026 | 99 | 107 | 3.0 | 6.0 | 0.00 | 0.00 | 0.00 | 38 | 1013.7 |
| 20260901231524 | 99 | 133 | 3.0 | 7.0 | 0.00 | 0.00 | 0.00 | 38 | 1013.8 |
| 20260901231102 | 99 | 112 | 3.0 | 9.0 | 0.00 | 0.00 | 0.00 | 39 | 1013.8 |
| 20260901230520 | 99 | 127 | 4.0 | 8.0 | 0.00 | 0.00 | 0.00 | 38 | 1013.7 |
| 20260901230018 | 99 | 114 | 2.0 | 4.0 | 0.00 | 0.00 | 0.00 | 37 | 1013.5 |
| 20260901225516 | 99 | 103 | 2.0 | 4.0 | 0.00 | 0.00 | 0.00 | 37 | 1013.6 |
| 20260901225034 | 99 | 104 | 3.0 | 5.0 | 0.00 | 0.00 | 0.00 | 37 | 1013.6 |
| 20260901224532 | 100 | 134 | 2.0 | 5.0 | 0.00 | 0.00 | 0.00 | 36 | 1013.7 |
| 20260901224030 | 100 | 126 | 3.0 | 10.0 | 0.00 | 0.00 | 0.00 | 36 | 1013.6 |
| 20260901223528 | 101 | 154 | 4.0 | 8.0 | 0.00 | 0.00 | 0.00 | 36 | 1013.6 |
| 20260901223026 | 101 | 215 | 2.0 | 6.0 | 0.00 | 0.00 | 0.00 | 35 | 1013.6 |
| 20260901222525 | 101 | 204 | 3.0 | 6.0 | 0.00 | 0.00 | 0.00 | 35 | 1013.6 |
| 20260901222024 | 101 | 111 | 4.0 | 8.0 | 0.00 | 0.00 | 0.00 | 35 | 1013.7 |
| 20260901221520 | 101 | 153 | 2.0 | 6.0 | 0.00 | 0.00 | 0.00 | 35 | 1013.6 |
| 20260901221019 | 100 | 138 | 3.0 | 7.0 | 0.00 | 0.00 | 0.00 | 35 | 1013.8 |
| 20260901220517 | 100 | 108 | 4.0 | 7.0 | 0.00 | 0.00 | 0.00 | 37 | 1013.7 |
| 20260901220034 | 100 | 97 | 3.0 | 8.0 | 0.00 | 0.00 | 0.00 | 37 | 1013.7 |
| 20260901215532 | 100 | 81 | 4.0 | 6.0 | 0.00 | 0.00 | 0.00 | 37 | 1013.8 |
| 20260901215028 | 100 | 92 | 4.0 | 7.0 | 0.00 | 0.00 | 0.00 | 37 | 1013.8 |
| 20260901214526 | 101 | 105 | 3.0 | 9.0 | 0.00 | 0.00 | 0.00 | 35 | 1014.0 |
| 20260901214022 | 102 | 168 | 3.0 | 7.0 | 0.00 | 0.00 | 0.00 | 35 | 1014.1 |
| 20260901213538 | 102 | 207 | 2.0 | 6.0 | 0.00 | 0.00 | 0.00 | 35 | 1014.1 |
| 20260901213017 | 102 | 172 | 3.0 | 8.0 | 0.00 | 0.00 | 0.00 | 36 | 1014.1 |
| 20260901212533 | 101 | 186 | 3.0 | 6.0 | 0.00 | 0.00 | 0.00 | 36 | 1014.2 |
| 20260901212031 | 102 | 146 | 4.0 | 10.0 | 0.00 | 0.00 | 0.00 | 35 | 1014.2 |
| 20260901211548 | 103 | 200 | 3.0 | 7.0 | 0.00 | 0.00 | 0.00 | 35 | 1014.2 |
| 20260901211025 | 101 | 181 | 3.0 | 6.0 | 0.00 | 0.00 | 0.00 | 36 | 1014.3 |
| 20260901210523 | 102 | 121 | 5.0 | 11.0 | 0.00 | 0.00 | 0.00 | 36 | 1014.3 |
| 20260901210021 | 101 | 130 | 4.0 | 7.0 | 0.00 | 0.00 | 0.00 | 36 | 1014.4 |
| 20260901205518 | 101 | 130 | 3.0 | 9.0 | 0.00 | 0.00 | 0.00 | 36 | 1014.5 |
| 20260901205016 | 102 | 128 | 3.0 | 9.0 | 0.00 | 0.00 | 0.00 | 36 | 1014.6 |
| 20260901204534 | 100 | 165 | 2.0 | 4.0 | 0.00 | 0.00 | 0.00 | 38 | 1014.5 |
| 20260901204032 | 100 | 92 | 3.0 | 7.0 | 0.00 | 0.00 | 0.00 | 38 | 1014.6 |
| 20260901203550 | 99 | 97 | 4.0 | 9.0 | 0.00 | 0.00 | 0.00 | 38 | 1014.6 |
| 20260901203027 | 98 | 141 | 2.0 | 6.0 | 0.00 | 0.00 | 0.00 | 39 | 1014.6 |
| 20260901202525 | 98 | 85 | 6.0 | 11.0 | 0.00 | 0.00 | 0.00 | 39 | 1014.7 |
| 20260901202022 | 99 | 82 | 6.0 | 11.0 | 0.00 | 0.00 | 0.00 | 40 | 1014.9 |
| 20260901201540 | 98 | 108 | 7.0 | 15.0 | 0.00 | 0.00 | 0.00 | 41 | 1014.9 |
| 20260901201017 | 98 | 88 | 4.0 | 12.0 | 0.00 | 0.00 | 0.00 | 40 | 1014.9 |
| 20260901200535 | 98 | 95 | 3.0 | 5.0 | 0.00 | 0.00 | 0.00 | 40 | 1014.9 |
| 20260901200053 | 99 | 103 | 4.0 | 9.0 | 0.00 | 0.00 | 0.00 | 40 | 1015.1 |
| 20260901195531 | 98 | 89 | 5.0 | 11.0 | 0.00 | 0.00 | 0.00 | 41 | 1015.1 |
| 20260901195028 | 98 | 84 | 5.0 | 9.0 | 0.00 | 0.00 | 0.00 | 41 | 1014.9 |
| 20260901194524 | 98 | 95 | 5.0 | 9.0 | 0.00 | 0.00 | 0.00 | 40 | 1015.2 |
| 20260901194042 | 100 | 98 | 4.0 | 8.0 | 0.00 | 0.00 | 0.00 | 39 | 1015.4 |
| 20260901193519 | 100 | 106 | 4.0 | 10.0 | 0.00 | 0.00 | 0.00 | 39 | 1015.3 |
| 20260901193037 | 99 | 104 | 4.0 | 7.0 | 0.00 | 0.00 | 0.00 | 39 | 1015.3 |
| 20260901192533 | 99 | 93 | 5.0 | 9.0 | 0.00 | 0.00 | 0.00 | 38 | 1015.3 |
| 20260901192031 | 98 | 107 | 4.0 | 8.0 | 0.00 | 0.00 | 0.00 | 40 | 1015.5 |
| 20260901191609 | 100 | 93 | 5.0 | 12.0 | 0.00 | 0.00 | 0.00 | 39 | 1015.6 |
| 20260901191024 | 100 | 136 | 3.0 | 6.0 | 0.00 | 0.00 | 0.00 | 39 | 1015.7 |
| 20260901190520 | 101 | 94 | 4.0 | 11.0 | 0.00 | 0.00 | 0.00 | 40 | 1015.7 |
| 20260901190018 | 101 | 165 | 2.0 | 5.0 | 0.00 | 0.00 | 0.00 | 39 | 1015.8 |
| 20260901185516 | 99 | 165 | 3.0 | 9.0 | 0.00 | 0.00 | 0.00 | 39 | 1016.0 |
| 20260901185054 | 100 | 104 | 3.0 | 8.0 | 0.00 | 0.00 | 0.00 | 40 | 1016.0 |
| 20260901184531 | 100 | 216 | 2.0 | 6.0 | 0.00 | 0.00 | 0.00 | 40 | 1016.1 |
| 20260901184030 | 97 | 92 | 4.0 | 11.0 | 0.00 | 0.00 | 0.00 | 43 | 1016.2 |
| 20260901183527 | 97 | 78 | 5.0 | 12.0 | 0.00 | 0.00 | 0.00 | 44 | 1016.4 |
| 20260901183021 | 98 | 86 | 3.0 | 8.0 | 0.00 | 0.00 | 0.00 | 42 | 1016.6 |
| 20260901182519 | 99 | 120 | 4.0 | 8.0 | 0.00 | 0.00 | 0.00 | 42 | 1016.5 |
| 20260901182017 | 99 | 202 | 4.0 | 8.0 | 0.00 | 0.00 | 0.00 | 41 | 1016.6 |
| 20260901181615 | 98 | 119 | 3.0 | 8.0 | 0.00 | 0.00 | 0.00 | 41 | 1016.6 |
| 20260901181032 | 98 | 95 | 4.0 | 8.0 | 0.00 | 0.00 | 0.00 | 41 | 1016.7 |
| 20260901180528 | 97 | 138 | 3.0 | 12.0 | 0.00 | 0.00 | 0.00 | 43 | 1016.6 |
| 20260901180026 | 97 | 76 | 4.0 | 8.0 | 0.00 | 0.00 | 0.00 | 43 | 1016.8 |
| 20260901175544 | 98 | 146 | 3.0 | 11.0 | 0.00 | 0.00 | 0.00 | 42 | 1016.9 |
| 20260901175021 | 97 | 118 | 5.0 | 9.0 | 0.00 | 0.00 | 0.00 | 42 | 1016.9 |
| 20260901174519 | 98 | 141 | 2.0 | 8.0 | 0.00 | 0.00 | 0.00 | 42 | 1016.9 |
| 20260901174018 | 97 | 175 | 3.0 | 6.0 | 0.00 | 0.00 | 0.00 | 43 | 1016.9 |
| 20260901173534 | 96 | 99 | 3.0 | 6.0 | 0.00 | 0.00 | 0.00 | 45 | 1017.1 |
| 20260901173031 | 96 | 67 | 3.0 | 6.0 | 0.00 | 0.00 | 0.00 | 44 | 1017.1 |
| 20260901172528 | 97 | 101 | 4.0 | 8.0 | 0.00 | 0.00 | 0.00 | 44 | 1017.3 |
| 20260901172026 | 97 | 115 | 2.0 | 6.0 | 0.00 | 0.00 | 0.00 | 43 | 1017.2 |
| 20260901171523 | 97 | 148 | 2.0 | 6.0 | 0.00 | 0.00 | 0.00 | 43 | 1017.4 |
| 20260901171021 | 98 | 113 | 3.0 | 5.0 | 0.00 | 0.00 | 0.00 | 43 | 1017.4 |
| 20260901170519 | 97 | 178 | 3.0 | 5.0 | 0.00 | 0.00 | 0.00 | 43 | 1017.5 |
| 20260901170017 | 96 | 112 | 3.0 | 7.0 | 0.00 | 0.00 | 0.00 | 44 | 1017.5 |
| 20260901165515 | 97 | 160 | 3.0 | 11.0 | 0.00 | 0.00 | 0.00 | 44 | 1017.6 |
| 20260901165034 | 97 | 226 | 3.0 | 10.0 | 0.00 | 0.00 | 0.00 | 44 | 1017.7 |
| 20260901164532 | 97 | 129 | 2.0 | 6.0 | 0.00 | 0.00 | 0.00 | 44 | 1017.9 |
| 20260901164030 | 96 | 130 | 2.0 | 7.0 | 0.00 | 0.00 | 0.00 | 45 | 1018.0 |
| 20260901163529 | 96 | 142 | 3.0 | 9.0 | 0.00 | 0.00 | 0.00 | 45 | 1017.8 |
| 20260901163027 | 95 | 229 | 2.0 | 6.0 | 0.00 | 0.00 | 0.00 | 46 | 1017.7 |
| 20260901162525 | 95 | 221 | 3.0 | 8.0 | 0.00 | 0.00 | 0.00 | 46 | 1017.9 |
| 20260901162043 | 95 | 232 | 3.0 | 7.0 | 0.00 | 0.00 | 0.00 | 45 | 1017.8 |
| 20260901161521 | 95 | 168 | 3.0 | 6.0 | 0.00 | 0.00 | 0.00 | 46 | 1017.7 |
| 20260901161019 | 94 | 191 | 3.0 | 6.0 | 0.00 | 0.00 | 0.00 | 47 | 1017.7 |
| 20260901160557 | 95 | 220 | 3.0 | 7.0 | 0.00 | 0.00 | 0.00 | 47 | 1017.7 |
| 20260901160015 | 94 | 233 | 3.0 | 7.0 | 0.00 | 0.00 | 0.00 | 48 | 1017.7 |
| 20260901155533 | 93 | 217 | 2.0 | 6.0 | 0.00 | 0.00 | 0.00 | 48 | 1017.7 |
| 20260901155031 | 93 | 222 | 3.0 | 6.0 | 0.00 | 0.00 | 0.00 | 49 | 1017.7 |
| 20260901154530 | 93 | 219 | 3.0 | 10.0 | 0.00 | 0.00 | 0.00 | 49 | 1017.8 |
| 20260901154046 | 93 | 222 | 2.0 | 6.0 | 0.00 | 0.00 | 0.00 | 49 | 1017.6 |
| 20260901153524 | 93 | 219 | 2.0 | 6.0 | 0.00 | 0.00 | 0.00 | 51 | 1017.5 |
| 20260901153021 | 92 | 213 | 3.0 | 6.0 | 0.00 | 0.00 | 0.00 | 52 | 1017.5 |
| 20260901152519 | 92 | 246 | 3.0 | 6.0 | 0.00 | 0.00 | 0.00 | 52 | 1017.7 |
| 20260901152016 | 91 | 219 | 2.0 | 4.0 | 0.00 | 0.00 | 0.00 | 53 | 1017.6 |
| 20260901151533 | 91 | 231 | 3.0 | 7.0 | 0.00 | 0.00 | 0.00 | 53 | 1017.7 |
| 20260901151043 | 91 | 203 | 2.0 | 4.0 | 0.00 | 0.00 | 0.00 | 53 | 1017.7 |
| 20260901150528 | 91 | 217 | 2.0 | 9.0 | 0.00 | 0.00 | 0.00 | 54 | 1017.7 |
| 20260901150026 | 91 | 225 | 3.0 | 7.0 | 0.00 | 0.00 | 0.00 | 54 | 1017.6 |
| 20260901145523 | 91 | 212 | 2.0 | 5.0 | 0.00 | 0.00 | 0.00 | 54 | 1017.8 |
| 20260901145021 | 90 | 164 | 2.0 | 5.0 | 0.00 | 0.00 | 0.00 | 55 | 1017.8 |
| 20260901144518 | 90 | 228 | 2.0 | 5.0 | 0.00 | 0.00 | 0.00 | 55 | 1017.7 |
| 20260901144016 | 89 | 193 | 2.0 | 5.0 | 0.00 | 0.00 | 0.00 | 56 | 1017.7 |
| 20260901143553 | 88 | 209 | 2.0 | 6.0 | 0.00 | 0.00 | 0.00 | 58 | 1017.7 |
| 20260901143031 | 89 | 223 | 2.0 | 8.0 | 0.00 | 0.00 | 0.00 | 57 | 1017.8 |
| 20260901142548 | 88 | 181 | 1.0 | 3.0 | 0.00 | 0.00 | 0.00 | 58 | 1017.9 |
| 20260901142026 | 87 | 183 | 1.0 | 3.0 | 0.00 | 0.00 | 0.00 | 60 | 1017.8 |
| 20260901141524 | 87 | 136 | 2.0 | 4.0 | 0.00 | 0.00 | 0.00 | 60 | 1017.9 |
| 20260901141021 | 87 | 140 | 1.0 | 6.0 | 0.00 | 0.00 | 0.00 | 61 | 1017.9 |
| 20260901140519 | 86 | 181 | 2.0 | 6.0 | 0.00 | 0.00 | 0.00 | 61 | 1017.7 |
| 20260901140016 | 86 | 158 | 2.0 | 5.0 | 0.00 | 0.00 | 0.00 | 61 | 1017.8 |
| 20260901135554 | 86 | 166 | 2.0 | 4.0 | 0.00 | 0.00 | 0.00 | 61 | 1017.8 |
| 20260901135032 | 86 | 126 | 2.0 | 4.0 | 0.00 | 0.00 | 0.00 | 62 | 1017.8 |
| 20260901134529 | 86 | 139 | 2.0 | 4.0 | 0.00 | 0.00 | 0.00 | 62 | 1017.8 |
| 20260901134027 | 85 | 161 | 2.0 | 4.0 | 0.00 | 0.00 | 0.00 | 63 | 1017.6 |
| 20260901133525 | 85 | 145 | 2.0 | 4.0 | 0.00 | 0.00 | 0.00 | 63 | 1017.7 |
| 20260901133022 | 85 | 132 | 1.0 | 4.0 | 0.00 | 0.00 | 0.00 | 64 | 1017.6 |
| 20260901132520 | 84 | 130 | 2.0 | 5.0 | 0.00 | 0.00 | 0.00 | 64 | 1017.5 |
| 20260901132018 | 84 | 145 | 2.0 | 4.0 | 0.00 | 0.00 | 0.00 | 65 | 1017.5 |
| 20260901131516 | 83 | 179 | 1.0 | 4.0 | 0.00 | 0.00 | 0.00 | 67 | 1017.5 |
| 20260901131055 | 82 | 234 | 0.0 | 3.0 | 0.00 | 0.00 | 0.00 | 68 | 1017.6 |
| 20260901130531 | 82 | 108 | 1.0 | 3.0 | 0.00 | 0.00 | 0.00 | 67 | 1017.5 |
| 20260901130029 | 83 | 89 | 1.0 | 3.0 | 0.00 | 0.00 | 0.00 | 66 | 1017.3 |
| 20260901125527 | 82 | 43 | 2.0 | 4.0 | 0.00 | 0.00 | 0.00 | 66 | 1017.3 |
| 20260901125024 | 82 | 92 | 1.0 | 3.0 | 0.00 | 0.00 | 0.00 | 67 | 1017.2 |
| 20260901124522 | 82 | 154 | 1.0 | 3.0 | 0.00 | 0.00 | 0.00 | 67 | 1017.1 |
| 20260901124020 | 81 | 75 | 0.0 | 2.0 | 0.00 | 0.00 | 0.00 | 68 | 1017.2 |
| 20260901123518 | 81 | 92 | 1.0 | 2.0 | 0.00 | 0.00 | 0.00 | 68 | 1017.1 |
| 20260901123057 | 81 | 184 | 1.0 | 2.0 | 0.00 | 0.00 | 0.00 | 68 | 1017.0 |
| 20260901122533 | 81 | 135 | 2.0 | 3.0 | 0.00 | 0.00 | 0.00 | 69 | 1017.0 |
| 20260901122031 | 81 | 165 | 1.0 | 3.0 | 0.00 | 0.00 | 0.00 | 68 | 1017.1 |
| 20260901121528 | 81 | 86 | 1.0 | 2.0 | 0.00 | 0.00 | 0.00 | 68 | 1017.0 |
| 20260901121026 | 81 | 43 | 2.0 | 3.0 | 0.00 | 0.00 | 0.00 | 67 | 1016.9 |
| 20260901120524 | 81 | 218 | 1.0 | 4.0 | 0.00 | 0.00 | 0.00 | 67 | 1016.7 |
| 20260901120022 | 81 | 264 | 1.0 | 2.0 | 0.00 | 0.00 | 0.00 | 67 | 1016.6 |
| 20260901115521 | 82 | 57 | 1.0 | 3.0 | 0.00 | 0.00 | 0.00 | 66 | 1016.7 |
| 20260901115019 | 82 | 207 | 2.0 | 4.0 | 0.00 | 0.00 | 0.00 | 66 | 1016.7 |
| 20260901114517 | 82 | 218 | 2.0 | 4.0 | 0.00 | 0.00 | 0.00 | 66 | 1016.5 |
| 20260901114015 | 82 | 206 | 1.0 | 6.0 | 0.00 | 0.00 | 0.00 | 66 | 1016.5 |
| 20260901113554 | 83 | 212 | 3.0 | 9.0 | 0.00 | 0.00 | 0.00 | 65 | 1016.5 |
| 20260901113052 | 83 | 209 | 3.0 | 6.0 | 0.00 | 0.00 | 0.00 | 64 | 1016.4 |
| 20260901112550 | 83 | 222 | 3.0 | 9.0 | 0.00 | 0.00 | 0.00 | 65 | 1016.5 |
| 20260901112028 | 83 | 222 | 3.0 | 6.0 | 0.00 | 0.00 | 0.00 | 65 | 1016.5 |
| 20260901111607 | 82 | 266 | 2.0 | 6.0 | 0.00 | 0.00 | 0.00 | 65 | 1016.4 |
| 20260901111025 | 82 | 276 | 2.0 | 5.0 | 0.00 | 0.00 | 0.00 | 66 | 1016.4 |
| 20260901110523 | 82 | 205 | 2.0 | 4.0 | 0.00 | 0.00 | 0.00 | 66 | 1016.4 |
| 20260901110021 | 82 | 239 | 1.0 | 4.0 | 0.00 | 0.00 | 0.00 | 66 | 1016.4 |
| 20260901105519 | 82 | 210 | 1.0 | 3.0 | 0.00 | 0.00 | 0.00 | 65 | 1016.3 |
| 20260901105017 | 83 | 217 | 2.0 | 5.0 | 0.00 | 0.00 | 0.00 | 65 | 1016.2 |
| 20260901104515 | 82 | 225 | 2.0 | 3.0 | 0.00 | 0.00 | 0.00 | 65 | 1016.3 |
| 20260901104034 | 82 | 233 | 1.0 | 5.0 | 0.00 | 0.00 | 0.00 | 65 | 1016.4 |
| 20260901103531 | 82 | 220 | 1.0 | 3.0 | 0.00 | 0.00 | 0.00 | 65 | 1016.3 |
| 20260901103030 | 82 | 216 | 1.0 | 4.0 | 0.00 | 0.00 | 0.00 | 65 | 1016.4 |
| 20260901102527 | 82 | 225 | 1.0 | 2.0 | 0.00 | 0.00 | 0.00 | 65 | 1016.2 |
| 20260901102025 | 82 | 225 | 1.0 | 3.0 | 0.00 | 0.00 | 0.00 | 65 | 1016.3 |
| 20260901101523 | 82 | 211 | 1.0 | 4.0 | 0.00 | 0.00 | 0.00 | 65 | 1016.5 |
| 20260901101022 | 83 | 209 | 1.0 | 3.0 | 0.00 | 0.00 | 0.00 | 64 | 1016.2 |
| 20260901100521 | 83 | 224 | 1.0 | 5.0 | 0.00 | 0.00 | 0.00 | 64 | 1016.2 |
| 20260901100018 | 83 | 225 | 1.0 | 3.0 | 0.00 | 0.00 | 0.00 | 64 | 1016.1 |
| 20260901095516 | 83 | 223 | 1.0 | 4.0 | 0.00 | 0.00 | 0.00 | 64 | 1016.2 |
| 20260901095034 | 83 | 222 | 2.0 | 5.0 | 0.00 | 0.00 | 0.00 | 63 | 1016.4 |
| 20260901094532 | 83 | 222 | 2.0 | 6.0 | 0.00 | 0.00 | 0.00 | 63 | 1016.4 |
| 20260901094031 | 83 | 226 | 1.0 | 4.0 | 0.00 | 0.00 | 0.00 | 63 | 1016.4 |
| 20260901093549 | 83 | 211 | 1.0 | 6.0 | 0.00 | 0.00 | 0.00 | 63 | 1016.4 |
| 20260901093027 | 83 | 205 | 1.0 | 4.0 | 0.00 | 0.00 | 0.00 | 63 | 1016.7 |
| 20260901092526 | 83 | 201 | 1.0 | 3.0 | 0.00 | 0.00 | 0.00 | 62 | 1016.6 |
| 20260901092025 | 83 | 214 | 1.0 | 5.0 | 0.00 | 0.00 | 0.00 | 62 | 1016.8 |
| 20260901091523 | 83 | 209 | 1.0 | 2.0 | 0.00 | 0.00 | 0.00 | 61 | 1016.7 |
| 20260901091042 | 83 | 203 | 1.0 | 4.0 | 0.00 | 0.00 | 0.00 | 61 | 1016.5 |
| 20260901090520 | 83 | 211 | 1.0 | 4.0 | 0.00 | 0.00 | 0.00 | 61 | 1016.4 |
| 20260901090018 | 83 | 196 | 2.0 | 4.0 | 0.00 | 0.00 | 0.00 | 60 | 1016.5 |
| 20260901085516 | 84 | 202 | 1.0 | 3.0 | 0.00 | 0.00 | 0.00 | 60 | 1016.3 |
| 20260901085034 | 84 | 204 | 2.0 | 4.0 | 0.00 | 0.00 | 0.00 | 59 | 1016.4 |
| 20260901084553 | 84 | 210 | 2.0 | 6.0 | 0.00 | 0.00 | 0.00 | 58 | 1016.2 |
| 20260901084031 | 84 | 216 | 2.0 | 6.0 | 0.00 | 0.00 | 0.00 | 58 | 1016.1 |
| 20260901083529 | 84 | 227 | 3.0 | 6.0 | 0.00 | 0.00 | 0.00 | 58 | 1016.1 |
| 20260901083027 | 84 | 209 | 2.0 | 5.0 | 0.00 | 0.00 | 0.00 | 58 | 1016.3 |
| 20260901082525 | 84 | 223 | 3.0 | 7.0 | 0.00 | 0.00 | 0.00 | 58 | 1016.4 |
| 20260901082023 | 84 | 208 | 2.0 | 5.0 | 0.00 | 0.00 | 0.00 | 58 | 1016.4 |
| 20260901081521 | 84 | 192 | 1.0 | 4.0 | 0.00 | 0.00 | 0.00 | 58 | 1016.2 |
| 20260901081021 | 84 | 196 | 2.0 | 4.0 | 0.00 | 0.00 | 0.00 | 57 | 1016.2 |
| 20260901080517 | 84 | 167 | 2.0 | 4.0 | 0.00 | 0.00 | 0.00 | 57 | 1016.2 |
| 20260901080034 | 84 | 184 | 1.0 | 4.0 | 0.00 | 0.00 | 0.00 | 57 | 1016.1 |
| 20260901075533 | 83 | 166 | 2.0 | 4.0 | 0.00 | 0.00 | 0.00 | 57 | 1016.0 |
| 20260901075030 | 83 | 177 | 1.0 | 4.0 | 0.00 | 0.00 | 0.00 | 57 | 1016.0 |
| 20260901074528 | 83 | 182 | 1.0 | 3.0 | 0.00 | 0.00 | 0.00 | 57 | 1016.2 |
| 20260901074027 | 83 | 158 | 1.0 | 2.0 | 0.00 | 0.00 | 0.00 | 57 | 1016.2 |
| 20260901073525 | 83 | 130 | 1.0 | 3.0 | 0.00 | 0.00 | 0.00 | 56 | 1016.2 |
| 20260901073023 | 83 | 145 | 0.0 | 2.0 | 0.00 | 0.00 | 0.00 | 56 | 1016.2 |
| 20260901072522 | 83 | 171 | 0.0 | 2.0 | 0.00 | 0.00 | 0.00 | 56 | 1016.2 |
| 20260901072020 | 83 | 123 | 1.0 | 2.0 | 0.00 | 0.00 | 0.00 | 55 | 1016.1 |
| 20260901071539 | 83 | 124 | 1.0 | 3.0 | 0.00 | 0.00 | 0.00 | 54 | 1016.0 |
| 20260901071037 | 83 | 140 | 0.0 | 2.0 | 0.00 | 0.00 | 0.00 | 54 | 1015.9 |
| 20260901070516 | 83 | 176 | 0.0 | 2.0 | 0.00 | 0.00 | 0.00 | 54 | 1015.9 |
| 20260901070034 | 83 | 182 | 0.0 | 2.0 | 0.00 | 0.00 | 0.00 | 54 | 1016.0 |
| 20260901065532 | 83 | 153 | 1.0 | 2.0 | 0.00 | 0.00 | 0.00 | 54 | 1015.9 |